[[{"header":{"parameterUnit":"m.s-1","parameterCategory":1,"la1":30.2991,"la2":30.254,"lo1":-89.0895,"lo2":-89.0444,"dy":0.0017,"dx":0.0017,"nx":28,"ny":28,"refTime":"2024-10-18T03:00:00:Z","depth":0,"parameterNumber":2,"parameterNumberName":"U-component_of_WINDS"},"data":[0,0,0,0,0,0,0,0,0,0,0,0,0,0,0,0,0,0,0,0,0,0,0,0,0,0,0,0,0,0,0,0,0,0,0,0,0,0,0,0,0,0,0,0,0,0,0,0,0,0,0,0,0,0,0,0,0,0,-5.322,-5.322,0,-5.3227,-5.3227,-5.3227,-5.3109,-5.3106,-5.3103,-5.31,-5.311,-5.3113,-5.3116,0,0,0,0,0,0,0,0,0,0,0,0,0,-5.3108,-5.3111,-5.322,-5.322,-5.322,-5.3227,-5.3227,-5.3227,-5.311,-5.3106,-5.3102,-5.3098,-5.3109,-5.3113,-5.3116,0,0,0,0,0,0,0,0,0,0,0,0,0,-5.314,-5.3112,-5.322,-5.3162,-5.3157,-5.3227,-5.3227,-5.3227,-5.3111,-5.3106,-5.3101,-5.3097,-5.3107,-5.3112,-5.3117,-5.3243,0,0,-5.3132,-5.3134,0,0,0,0,0,0,0,0,-5.3139,-5.3144,-5.3171,-5.3166,-5.3161,-5.3162,-5.3191,-5.3232,-5.3112,-5.3128,-5.31,-5.3094,-5.3131,-5.3134,-5.3146,-5.3243,-5.3244,-5.3132,-5.3135,-5.3137,-5.3139,0,0,0,0,0,0,0,-5.3137,-5.3144,-5.3222,-5.3171,-5.3165,-5.3137,-5.3136,-5.3198,-5.3157,-5.3127,-5.3118,-5.312,-5.3128,-5.3141,-5.3145,-5.3244,-5.3132,-5.3136,-5.3139,-5.3141,-5.3447,-5.3452,0,0,0,0,0,0,-5.3142,-5.3142,-5.3222,-5.3223,-5.3138,-5.3143,-5.3142,-5.3167,-5.3156,-5.3149,-5.3124,-5.3115,-5.3135,-5.314,-5.3145,-5.3292,-5.3137,-5.3142,-5.3145,-5.3442,-5.3448,-5.3454,0,0,0,0,0,0,-5.314,-5.315,-5.3222,-5.318,-5.3187,-5.315,-5.3178,-5.3169,-5.3183,-5.3154,-5.3146,-5.3146,-5.3132,-5.3138,-5.322,-5.3291,-5.3144,-5.3148,-5.3436,-5.3444,-5.3451,-5.3588,0,0,0,0,0,0,-5.3137,-5.315,-5.3196,-5.3182,-5.319,-5.3296,-5.3183,-5.3173,-5.3191,-5.3179,-5.3172,-5.3166,-5.3129,-5.3213,-5.3224,-5.3295,-5.3152,-5.3429,-5.3439,-5.3448,-5.3577,-5.36,-5.3619,0,0,0,0,0,-5.3133,-5.3235,-5.3199,-5.321,-5.3247,-5.33,-5.3304,-5.3258,-5.3197,-5.3244,-5.3226,-5.3167,-5.3282,-5.3222,-5.3234,-5.3308,-5.3424,-5.3436,-5.3448,-5.3568,-5.3595,-5.3619,0,0,0,0,0,0,-5.3259,-5.3232,-5.3192,-5.3292,-5.3299,-5.328,-5.3337,-5.3289,-5.3314,-5.3301,-5.3243,-5.3243,-5.3334,-5.3329,-5.3263,-5.343,-5.3342,-5.3357,-5.343,-5.3456,-5.3476,-5.3476,-5.3156,0,0,0,0,0,-5.3298,-5.3342,-5.3317,-5.3407,-5.3413,-5.3375,-5.3396,-5.336,-5.3366,-5.3368,-5.3356,-5.3365,-5.3402,-5.3429,-5.3462,-5.3576,-5.3574,-5.3633,-5.3654,-5.3671,-5.3684,-5.3746,-5.3772,-5.3492,-5.3492,-5.3492,0,0,-5.3379,-5.337,-5.3401,-5.3432,-5.3433,-5.3482,-5.3378,-5.3433,-5.3469,-5.3377,-5.3453,-5.3445,-5.345,-5.3549,-5.3592,-5.3548,-5.3762,-5.3686,-5.37,-5.3704,-5.3761,-5.3787,-5.3811,-5.35,-5.3499,-5.3497,0,0,-5.3552,-5.3549,-5.3625,-5.3629,-5.3632,-5.3606,-5.3625,-5.3614,-5.3605,-5.368,-5.3613,-5.3655,-5.3721,-5.3729,-5.3741,-5.392,-5.3867,-5.3933,-5.4042,-5.4103,-5.4125,-5.4144,-5.4209,-5.4233,-5.3946,-5.3946,-5.3947,0,-5.3653,-5.3722,-5.367,-5.373,-5.3746,-5.3665,-5.3742,-5.3749,-5.3763,-5.3777,-5.3727,-5.381,-5.3808,-5.3908,-5.3952,-5.3965,-5.3985,-5.3933,-5.4126,-5.4145,-5.4162,-5.4223,-5.4248,-5.3954,-5.3954,-5.3953,-5.3952,0,-5.3846,-5.3895,-5.3956,-5.3972,-5.3995,-5.4064,-5.4024,-5.4054,-5.4017,-5.3997,-5.4076,-5.4071,-5.4103,-5.4124,-5.4088,-5.422,-5.4193,-5.4136,-5.4047,-5.4198,-5.4254,-5.4277,-5.3966,-5.3963,-5.3961,-5.3959,0,0,-5.4096,-5.4084,-5.4108,-5.4115,-5.4113,-5.4151,-5.4217,-5.4247,-5.4275,-5.4289,-5.4343,-5.4403,-5.435,-5.4364,-5.4329,-5.4382,-5.4526,-5.4318,-5.4318,-5.4358,-5.4673,-5.4716,-5.4744,-5.4491,-5.4495,-5.4498,-5.4672,0,-5.4265,-5.4375,-5.4332,-5.4446,-5.4492,-5.4417,-5.4474,-5.4481,-5.4465,-5.4503,-5.4486,-5.4529,-5.4456,-5.4464,-5.4514,-5.4498,-5.4588,-5.4485,-5.4542,-5.4545,-5.4543,-5.4773,-5.4819,-5.4983,-5.4694,-5.4698,-5.47,0,-5.4475,-5.4498,-5.4617,-5.461,-5.4627,-5.468,-5.4705,-5.4742,-5.4748,-5.4733,-5.4751,-5.4704,-5.477,-5.4682,-5.4773,-5.4703,-5.4725,-5.4721,-5.4726,-5.473,-5.4632,-5.4784,-5.5034,-5.5059,-5.4735,-5.4732,-5.4729,0,-5.4647,-5.4707,-5.4786,-5.4795,-5.4788,-5.4827,-5.4826,-5.4828,-5.485,-5.4873,-5.4887,-5.4918,-5.4935,-5.496,-5.4924,-5.4863,-5.5021,-5.4929,-5.5012,-5.5013,-5.5048,-5.5046,-5.5306,-5.5062,-5.5061,-5.5061,-5.506,0,-5.484,-5.4916,-5.4863,-5.4912,-5.4996,-5.4947,-5.5031,-5.5022,-5.5025,-5.5072,-5.501,-5.5055,-5.5004,-5.5046,-5.5019,-5.5099,-5.5107,-5.5098,-5.509,-5.5103,-5.5105,-5.5116,-5.5104,-5.5067,-5.5066,-5.5065,-5.5064,0,-5.5045,-5.5013,-5.5095,-5.5082,-5.5081,-5.5143,-5.5133,-5.5178,-5.5159,-5.522,-5.5231,-5.5201,-5.5247,-5.5214,-5.5259,-5.5241,-5.5347,-5.5322,-5.5344,-5.5338,-5.5422,-5.5415,-5.5699,-5.5734,-5.5467,-5.547,-5.5472,0,-5.517,-5.5227,-5.5221,-5.5247,-5.525,-5.5294,-5.5316,-5.5271,-5.5297,-5.531,-5.5355,-5.5395,-5.5425,-5.5503,-5.5486,-5.5521,-5.5497,-5.5595,-5.5502,-5.5515,-5.55,-5.5497,-5.5503,-5.5613,-5.5616,-5.5619,-5.5621,0,-5.5395,-5.5377,-5.5411,-5.5441,-5.5469,-5.549,-5.5506,-5.5532,-5.5486,-5.5519,-5.5565,-5.5588,-5.5635,-5.5677,-5.5706,-5.5707,-5.5658,-5.565,-5.5671,-5.5686,-5.5697,-5.5693,-5.5396,-5.5644,-5.5641,-5.564,-5.5639,-5.5638,-5.5564,-5.5612,-5.5616,-5.5656,-5.5664,-5.5681,-5.5724,-5.571,-5.5747,-5.5781,-5.5753,-5.5809,-5.5816,-5.585,-5.5857,-5.5901,-5.5862,-5.5892,-5.59,-5.5908,-5.592,-5.569,-5.5907,-5.5906,-5.5905,-5.5905,-5.5904,0,-5.5787,-5.5786,-5.5824,-5.5849,-5.5882,-5.5832,-5.5848,-5.5879,-5.5928,-5.5939,-5.597,-5.6024,-5.6065,-5.6052,-5.6089,-5.6127,-5.6106,-5.6138,-5.6135,-5.6136,-5.5953,-5.5932,-5.6155,-5.6155,-5.6155,-5.6155,-5.6155,-5.6155,-5.5907,-5.5985,-5.5968,-5.6051,-5.6049,-5.6103,-5.6116,-5.6133,-5.6141,-5.6204,-5.6238,-5.6229,-5.6231,-5.6268,-5.6304,-5.6299,-5.6316,-5.6357,-5.6345,-5.6174,-5.6149,-5.6125,-5.6105,-5.6361,-5.6362,-5.6524,-5.6526,-5.6527]},{"header":{"parameterUnit":"m.s-1","parameterCategory":1,"la1":30.2991,"la2":30.254,"lo1":-89.0895,"lo2":-89.0444,"dy":0.0017,"dx":0.0017,"nx":28,"ny":28,"refTime":"2024-10-18T03:00:00:Z","depth":0,"parameterNumber":3,"parameterNumberName":"V-component_of_WINDS"},"data":[0,0,0,0,0,0,0,0,0,0,0,0,0,0,0,0,0,0,0,0,0,0,0,0,0,0,0,0,0,0,0,0,0,0,0,0,0,0,0,0,0,0,0,0,0,0,0,0,0,0,0,0,0,0,0,0,0,0,-1.3528,-1.3528,0,-1.3528,-1.3528,-1.3528,-1.345,-1.3448,-1.3446,-1.3444,-1.3447,-1.3449,-1.3451,0,0,0,0,0,0,0,0,0,0,0,0,0,-1.3461,-1.3463,-1.3528,-1.3528,-1.3528,-1.3528,-1.3528,-1.3528,-1.3451,-1.3448,-1.3446,-1.3443,-1.3446,-1.3448,-1.3451,0,0,0,0,0,0,0,0,0,0,0,0,0,-1.3479,-1.3463,-1.3528,-1.3489,-1.3486,-1.3528,-1.3528,-1.3528,-1.3451,-1.3448,-1.3445,-1.3442,-1.3445,-1.3448,-1.3451,-1.3531,0,0,-1.346,-1.3461,0,0,0,0,0,0,0,0,-1.3478,-1.3481,-1.3495,-1.3492,-1.3488,-1.3486,-1.3505,-1.3529,-1.3452,-1.3464,-1.3444,-1.3441,-1.3462,-1.3464,-1.3471,-1.3531,-1.3531,-1.346,-1.3462,-1.3463,-1.3464,0,0,0,0,0,0,0,-1.3477,-1.3481,-1.3528,-1.3495,-1.3491,-1.3472,-1.3471,-1.3509,-1.3481,-1.3463,-1.3457,-1.3458,-1.346,-1.3468,-1.347,-1.3531,-1.346,-1.3463,-1.3465,-1.3466,-1.3657,-1.366,0,0,0,0,0,0,-1.3481,-1.348,-1.3528,-1.3528,-1.3475,-1.3476,-1.3475,-1.349,-1.348,-1.3476,-1.3461,-1.3455,-1.3464,-1.3467,-1.347,-1.3563,-1.3463,-1.3466,-1.3468,-1.3653,-1.3657,-1.3661,0,0,0,0,0,0,-1.3479,-1.3486,-1.3528,-1.3503,-1.3506,-1.348,-1.3498,-1.3491,-1.3499,-1.3478,-1.3473,-1.3474,-1.3462,-1.3466,-1.3516,-1.3562,-1.3468,-1.347,-1.3649,-1.3655,-1.3659,-1.375,0,0,0,0,0,0,-1.3478,-1.3486,-1.3516,-1.3504,-1.3508,-1.3574,-1.35,-1.3494,-1.3504,-1.3496,-1.349,-1.3486,-1.346,-1.3512,-1.3519,-1.3564,-1.3473,-1.3645,-1.3652,-1.3658,-1.3742,-1.3757,-1.3769,0,0,0,0,0,-1.3476,-1.3542,-1.3518,-1.3524,-1.3545,-1.3577,-1.3579,-1.3548,-1.3508,-1.3538,-1.3525,-1.3486,-1.3555,-1.3518,-1.3525,-1.3572,-1.3642,-1.365,-1.3657,-1.3736,-1.3754,-1.3769,0,0,0,0,0,0,-1.3561,-1.3539,-1.3513,-1.3576,-1.3579,-1.3564,-1.3601,-1.3568,-1.3582,-1.3574,-1.3535,-1.3534,-1.3591,-1.3586,-1.3545,-1.3648,-1.3592,-1.3601,-1.365,-1.3666,-1.368,-1.368,-1.3475,0,0,0,0,0,-1.3587,-1.3614,-1.3594,-1.3652,-1.3655,-1.3628,-1.364,-1.3616,-1.3617,-1.3618,-1.3608,-1.3611,-1.3634,-1.3649,-1.3669,-1.3741,-1.3738,-1.3776,-1.379,-1.3801,-1.381,-1.3847,-1.3864,-1.3685,-1.3685,-1.3685,0,0,-1.3641,-1.3633,-1.3653,-1.3669,-1.3668,-1.3697,-1.3629,-1.3663,-1.3685,-1.3623,-1.367,-1.3663,-1.3664,-1.3725,-1.3752,-1.3723,-1.3858,-1.381,-1.3819,-1.3822,-1.3857,-1.3874,-1.3889,-1.369,-1.3689,-1.3688,0,0,-1.3755,-1.3752,-1.38,-1.38,-1.3799,-1.378,-1.3791,-1.3781,-1.3774,-1.382,-1.3774,-1.3799,-1.3838,-1.3841,-1.3847,-1.3961,-1.3926,-1.3968,-1.404,-1.4077,-1.4091,-1.4103,-1.4145,-1.416,-1.3977,-1.3977,-1.3977,0,-1.3824,-1.3866,-1.3829,-1.3866,-1.3874,-1.3818,-1.3867,-1.3869,-1.3875,-1.3882,-1.385,-1.3897,-1.3894,-1.3955,-1.3983,-1.399,-1.4002,-1.397,-1.4092,-1.4104,-1.4115,-1.4154,-1.4169,-1.3983,-1.3982,-1.3981,-1.3981,0,-1.3949,-1.3979,-1.4018,-1.4024,-1.4037,-1.408,-1.405,-1.4067,-1.4041,-1.4026,-1.4073,-1.4067,-1.4084,-1.4096,-1.4072,-1.4154,-1.4137,-1.4099,-1.4041,-1.4138,-1.4174,-1.4188,-1.399,-1.3988,-1.3987,-1.3985,0,0,-1.4119,-1.4103,-1.4118,-1.412,-1.4114,-1.4137,-1.4176,-1.4192,-1.4208,-1.4214,-1.4247,-1.428,-1.4245,-1.4252,-1.4227,-1.4259,-1.435,-1.4217,-1.4216,-1.4243,-1.4442,-1.4471,-1.4489,-1.4326,-1.4329,-1.4331,-1.4442,0,-1.423,-1.4297,-1.4265,-1.4336,-1.4363,-1.431,-1.4344,-1.4345,-1.4331,-1.4353,-1.4338,-1.4363,-1.4313,-1.4317,-1.4347,-1.4333,-1.439,-1.4324,-1.4358,-1.4359,-1.436,-1.4508,-1.4539,-1.4644,-1.4456,-1.4458,-1.446,0,-1.437,-1.438,-1.4454,-1.4442,-1.4452,-1.4484,-1.4496,-1.4517,-1.4516,-1.4503,-1.4511,-1.4478,-1.4517,-1.4458,-1.4511,-1.4468,-1.4479,-1.4474,-1.4477,-1.448,-1.4416,-1.4516,-1.4677,-1.4693,-1.4481,-1.448,-1.4478,0,-1.4487,-1.452,-1.4568,-1.4571,-1.4558,-1.4582,-1.4578,-1.4574,-1.4585,-1.4595,-1.4602,-1.4617,-1.4626,-1.4638,-1.461,-1.457,-1.4667,-1.4606,-1.4658,-1.4659,-1.4683,-1.4682,-1.4849,-1.4688,-1.4688,-1.4688,-1.4687,0,-1.4616,-1.4663,-1.462,-1.465,-1.4701,-1.4663,-1.4715,-1.4705,-1.4702,-1.4729,-1.4684,-1.471,-1.467,-1.4693,-1.4671,-1.4719,-1.4723,-1.4714,-1.4708,-1.4719,-1.4721,-1.4727,-1.472,-1.4692,-1.4691,-1.469,-1.4689,0,-1.4757,-1.4729,-1.4778,-1.4762,-1.4759,-1.4798,-1.4784,-1.4811,-1.4793,-1.4828,-1.4834,-1.4808,-1.4832,-1.4804,-1.4827,-1.4812,-1.4876,-1.4859,-1.4877,-1.4872,-1.4926,-1.4922,-1.5105,-1.5127,-1.4951,-1.4953,-1.4954,0,-1.4841,-1.4876,-1.4863,-1.4877,-1.4876,-1.49,-1.4911,-1.4874,-1.4888,-1.4889,-1.4916,-1.4936,-1.495,-1.4992,-1.4975,-1.4992,-1.4975,-1.5038,-1.4977,-1.4987,-1.4977,-1.4976,-1.4979,-1.5051,-1.5053,-1.5054,-1.5056,0,-1.4994,-1.4978,-1.4996,-1.5009,-1.5023,-1.5031,-1.5036,-1.5051,-1.5013,-1.503,-1.5054,-1.5065,-1.5087,-1.5108,-1.512,-1.5116,-1.508,-1.5075,-1.5088,-1.51,-1.511,-1.5106,-1.4912,-1.5071,-1.507,-1.5068,-1.5068,-1.5067,-1.511,-1.5138,-1.5133,-1.5154,-1.5154,-1.5159,-1.5184,-1.5169,-1.5188,-1.5203,-1.5179,-1.521,-1.5207,-1.5219,-1.5219,-1.5242,-1.5215,-1.5234,-1.5239,-1.5245,-1.5253,-1.5105,-1.5244,-1.5244,-1.5243,-1.5243,-1.5242,0,-1.5261,-1.5255,-1.5274,-1.5282,-1.5298,-1.5261,-1.5265,-1.5281,-1.5308,-1.5308,-1.5323,-1.535,-1.537,-1.5354,-1.537,-1.5392,-1.5376,-1.5398,-1.5397,-1.5396,-1.5276,-1.5263,-1.5411,-1.5411,-1.541,-1.541,-1.541,-1.541,-1.5342,-1.5388,-1.5372,-1.5418,-1.5411,-1.544,-1.5445,-1.545,-1.5449,-1.5482,-1.5498,-1.5487,-1.548,-1.5496,-1.5512,-1.5507,-1.5516,-1.5544,-1.5533,-1.5421,-1.5405,-1.5389,-1.5377,-1.5546,-1.5546,-1.5651,-1.5652,-1.5653]}]]